Wind_Speed
9 20 23 19 17 17 21 25 26 24 25 24 22 19 17 14 13 14 14 13 12 14 14 13 13 12 12 10 10 10 9 9 9
11 14 16 24 21 21 20 20 25 26 24 24 25 23 20 18 15 15 14 15 14 14 14 15 16 15 13 13 12 13 12 10 11
21 22 21 25 20 23 25 23 22 21 23 22 23 23 23 21 19 17 15 16 16 16 15 17 17 16 16 16 15 15 14 13 12
25 19 16 18 21 23 24 23 25 22 20 23 24 25 24 23 23 22 19 19 16 16 16 16 17 17 16 16 16 15 16 14 12
25 24 23 21 20 23 25 27 29 26 26 22 26 26 25 24 23 24 26 24 20 18 19 20 19 18 18 17 16 16 16 15 14
19 25 26 28 30 26 32 34 31 25 29 29 30 28 20 23 26 26 28 28 27 23 22 22 23 23 21 20 18 18 18 17 17
24 28 32 29 28 24 30 33 38 30 32 30 34 33 29 23 26 27 26 28 29 30 27 26 25 25 24 23 22 22 20 20 19
24 26 15 9 14 19 29 39 39 29 29 36 34 36 32 37 31 28 28 32 31 31 32 30 28 27 28 28 26 25 24 23 22
27 20 17 16 18 22 23 26 33 38 31 17 32 46 35 40 39 31 29 35 34 35 34 33 33 32 30 31 30 30 28 26 26
34 27 23 20 19 21 24 30 33 29 24 18 24 23 35 36 35 35 34 37 36 41 39 37 37 38 36 34 33 32 32 31 30
39 34 27 28 24 22 29 30 29 25 17 19 14 15 13 14 17 19 35 18 36 41 38 41 42 40 41 42 38 36 35 35 34
39 33 32 31 22 23 26 18 21 22 22 21 13 18 16 15 13 15 15 13 13 30 39 41 40 34 42 43 45 41 39 36 38
35 36 34 35 33 28 30 28 25 26 25 25 22 19 18 18 22 22 16 11 12 14 21 20 28 35 34 38 46 49 47 42 40
31 30 31 32 37 34 31 30 32 32 32 28 26 22 22 21 17 17 21 14 13 14 13 14 14 18 27 26 45 47 50 44 43
36 35 37 37 37 37 35 30 35 35 36 35 31 27 23 19 17 20 19 17 17 16 16 18 18 19 20 27 23 23 35 45 49
38 38 36 37 38 39 38 37 38 36 33 33 34 31 26 24 24 25 25 24 25 24 23 23 24 23 24 22 20 21 23 28 29
35 38 39 43 42 42 40 41 43 42 40 40 40 38 37 33 34 33 32 34 34 32 32 33 33 31 30 29 28 29 28 29 29
36 50 46 51 50 47 45 44 45 45 44 44 45 46 48 42 38 40 37 41 43 40 41 42 40 40 38 36 36 37 37 37 36
39 38 45 51 51 47 40 41 44 45 45 46 46 46 49 52 48 46 47 46 47 49 48 46 44 45 45 45 44 43 43 44 44
50 44 42 38 42 56 40 44 46 46 47 48 51 52 53 53 50 48 46 49 50 50 51 51 52 51 51 52 51 52 52 50 49
Wind_Direction
225 207 216 202 203 204 206 207 202 207 203 201 205 203 198 195 198 195 196 196 199 201 201 194 192 196 196 193 192 202 208 200 198
218 226 228 225 215 208 214 220 211 211 213 208 208 207 210 208 208 209 209 206 207 214 208 207 205 201 201 199 203 207 213 218 210
217 208 215 219 225 219 208 216 215 215 217 220 214 213 210 213 217 218 218 216 220 217 219 217 218 212 208 205 211 210 209 212 219
202 192 188 219 224 229 218 224 231 228 223 222 224 218 213 213 218 222 222 217 222 226 229 229 228 228 224 221 222 222 221 218 221
212 206 208 210 212 218 218 225 231 239 229 219 229 226 225 222 221 224 226 225 222 227 228 233 229 234 237 236 231 234 231 228 227
232 226 220 221 216 216 223 224 233 248 234 231 226 220 225 220 222 226 229 229 230 225 224 228 227 234 235 238 237 241 238 232 234
238 246 225 219 215 217 222 218 230 245 240 225 225 225 231 235 233 227 230 233 234 236 232 231 233 233 236 234 236 238 241 241 236
235 240 238 225 235 237 239 218 226 240 227 238 223 224 222 226 230 229 235 235 234 237 236 235 236 237 238 236 236 241 242 242 240
229 227 235 243 248 246 256 256 244 244 246 258 247 232 232 233 233 223 243 241 238 241 239 238 241 240 239 242 238 238 241 244 245
226 222 241 250 265 255 255 246 254 262 275 272 240 216 226 234 237 240 243 236 240 241 239 239 238 242 243 245 245 243 242 245 248
235 245 248 256 271 255 240 241 250 264 271 278 282 267 254 256 241 235 228 253 239 234 239 244 244 244 240 244 245 244 245 243 243
243 249 253 257 247 241 246 245 248 253 262 269 245 252 241 250 259 260 250 261 255 228 235 244 249 265 260 248 245 244 241 242 243
240 241 245 246 241 239 244 245 246 247 251 250 249 234 239 233 233 247 255 257 268 250 259 254 238 238 256 253 244 242 244 244 246
233 231 233 240 245 241 238 242 241 242 241 238 233 236 241 241 230 231 241 253 258 267 273 280 276 285 253 255 240 243 243 244 246
235 225 224 229 234 239 238 235 239 239 238 240 236 232 217 223 239 242 241 246 257 265 270 272 273 279 285 288 274 263 257 256 248
230 228 228 228 231 236 238 239 240 241 241 238 234 228 229 240 241 246 247 253 257 258 264 269 273 275 276 277 277 269 269 286 278
238 227 231 234 232 233 237 237 237 236 240 242 235 234 240 248 244 243 251 254 252 254 262 268 271 270 270 269 269 264 263 262 265
243 245 233 225 226 230 234 240 243 244 245 247 242 247 246 249 249 251 261 253 252 254 258 266 266 267 265 261 259 261 262 262 262
233 240 239 235 229 229 233 240 240 241 243 243 239 246 248 251 250 247 249 251 257 259 263 264 264 264 265 265 265 262 258 260 261
242 243 228 230 234 230 239 243 235 242 242 243 241 245 250 249 246 262 262 262 262 263 264 263 263 263 263 263 264 264 264 263 258
Height
5900 5902 5905 5909 5913 5915 5919 5923 5924 5926 5929 5931 5933 5935 5937 5939 5941 5942 5943 5944 5947 5948 5948 5950 5952 5953 5955 5956 5958 5958 5959 5960 5962
5895 5900 5904 5906 5910 5912 5915 5920 5922 5923 5926 5929 5931 5934 5936 5938 5939 5941 5942 5943 5945 5947 5949 5950 5951 5952 5953 5956 5957 5958 5960 5961 5962
5892 5894 5897 5902 5905 5908 5911 5915 5918 5920 5922 5926 5929 5931 5933 5936 5938 5939 5941 5943 5945 5946 5948 5949 5951 5953 5953 5954 5956 5957 5958 5960 5961
5889 5891 5892 5897 5900 5903 5907 5909 5913 5915 5919 5921 5925 5926 5928 5931 5934 5937 5939 5940 5943 5945 5946 5948 5950 5951 5953 5954 5954 5957 5957 5958 5960
5885 5886 5888 5890 5894 5898 5902 5905 5908 5911 5914 5916 5918 5921 5924 5926 5929 5932 5935 5936 5940 5942 5943 5945 5947 5948 5951 5953 5954 5956 5956 5957 5957
5883 5883 5884 5885 5888 5892 5895 5900 5903 5904 5907 5911 5914 5915 5918 5920 5922 5926 5929 5932 5935 5937 5938 5940 5943 5946 5947 5949 5951 5953 5955 5954 5956
5879 5878 5879 5881 5882 5886 5888 5893 5897 5894 5900 5904 5906 5908 5912 5915 5916 5919 5923 5927 5930 5932 5933 5935 5938 5940 5943 5944 5946 5948 5950 5952 5954
5872 5874 5875 5877 5881 5882 5883 5886 5889 5890 5892 5894 5896 5900 5904 5909 5910 5912 5916 5919 5923 5926 5928 5929 5933 5934 5937 5939 5941 5944 5946 5946 5948
5867 5869 5870 5875 5877 5878 5880 5881 5882 5884 5887 5888 5888 5891 5897 5901 5902 5903 5909 5912 5916 5920 5922 5923 5926 5928 5930 5933 5935 5938 5940 5942 5943
5859 5862 5866 5869 5871 5873 5875 5876 5876 5879 5880 5883 5883 5884 5887 5891 5896 5899 5902 5904 5908 5911 5914 5915 5918 5921 5923 5926 5929 5932 5934 5936 5939
5851 5855 5859 5862 5864 5866 5869 5871 5870 5872 5875 5876 5878 5881 5885 5884 5888 5891 5895 5895 5897 5901 5904 5907 5909 5911 5915 5918 5921 5924 5926 5928 5930
5843 5847 5851 5855 5858 5860 5862 5864 5866 5868 5871 5873 5877 5879 5880 5882 5885 5888 5888 5890 5891 5893 5896 5898 5902 5905 5906 5909 5913 5916 5917 5919 5921
5835 5839 5843 5847 5851 5854 5856 5858 5860 5863 5866 5868 5872 5873 5875 5878 5880 5883 5885 5886 5886 5887 5889 5891 5893 5895 5896 5898 5901 5905 5909 5909 5911
5824 5830 5834 5839 5842 5845 5849 5852 5853 5856 5859 5862 5866 5869 5871 5873 5874 5875 5878 5880 5882 5882 5881 5883 5885 5887 5889 5889 5890 5894 5897 5899 5900
5815 5820 5824 5828 5832 5836 5839 5842 5845 5848 5852 5855 5859 5862 5863 5866 5869 5870 5872 5872 5874 5875 5877 5878 5879 5880 5881 5881 5879 5883 5888 5889 5891
5804 5809 5814 5816 5820 5824 5828 5832 5836 5840 5843 5846 5850 5854 5856 5859 5861 5863 5864 5866 5868 5869 5871 5871 5872 5872 5874 5875 5876 5875 5877 5879 5882
5795 5798 5802 5806 5809 5813 5817 5822 5826 5829 5833 5838 5842 5845 5848 5850 5853 5855 5856 5858 5860 5861 5862 5863 5864 5865 5866 5866 5868 5871 5870 5870 5870
5786 5784 5788 5792 5795 5800 5805 5810 5814 5818 5822 5827 5831 5835 5838 5840 5842 5844 5846 5848 5850 5851 5853 5854 5854 5855 5856 5857 5858 5859 5859 5860 5860
5777 5777 5777 5782 5787 5791 5795 5798 5802 5806 5810 5813 5818 5822 5825 5828 5830 5832 5834 5835 5837 5839 5840 5842 5842 5842 5844 5845 5846 5847 5848 5848 5847
5767 5770 5768 5771 5775 5780 5783 5786 5790 5794 5797 5800 5804 5807 5810 5813 5816 5818 5819 5821 5823 5824 5825 5826 5828 5828 5829 5830 5832 5832 5832 5832 5834